This demonstration page uses our WeatherBlox Daily Observations layout. Learn more.

Left ArrowRight Arrow

Hourly Observations for July 12, 2018

Temp ( °F °C ) Dew Point ( °F °C ) Humidity (%) Winds ( mph kmh ) Pressure ( in mb ) Visibility ( mi km ) Precip ( " mm )
12:53 am 00:53 Clear 77 25 46 7.8 33 33 NNW 3 6 29.81 1009 10 16 0.00 0.00
1:53 am 01:53 Clear 77 25 45 7.2 32 32 N 6 9 29.81 1010 10 16 0.00 0.00
2:53 am 02:53 Clear 74 23.3 48 8.9 40 40 NW 6 9 29.82 1010 10 16 0.00 0.00
3:53 am 03:53 Clear 72 22.2 48 8.9 43 43 N 3 6 29.83 1010 10 16 0.00 0.00
4:53 am 04:53 Clear 70 21.1 51 10.6 51 51 Calm 29.83 1010 10 16 0.00 0.00
5:53 am 05:53 Sunny 71 21.7 52 11.1 51 51 NNW 3 6 29.84 1010 10 16 0.00 0.00
6:53 am 06:53 Sunny 72 22.2 52 11.1 50 50 Calm 29.85 1011 10 16 0.00 0.00
7:53 am 07:53 Sunny 77 25 52 11.1 42 42 WNW 3 6 29.85 1011 10 16 0.00 0.00
8:53 am 08:53 Sunny 84 28.9 51 10.6 32 32 Calm 29.86 1011 10 16 0.00 0.00
9:53 am 09:53 Sunny 89 31.7 50 10 26 26 Calm 29.85 1011 10 16 0.00 0.00
10:53 am 10:53 Sunny 94 34.4 49 9.4 21 21 Calm 29.84 1011 10 16 0.00 0.00
11:53 am 11:53 Sunny 97 36.1 50 10 20 20 SE 6 9 29.84 1010 10 16 0.00 0.00
12:53 pm 12:53 Sunny 100 37.8 49 9.4 18 18 VRB 3 6 29.82 1010 10 16 0.00 0.00
1:53 pm 13:53 Sunny 104 40 40 4.4 11 11 undefined N/A 29.82 1010 10 16 0.00 0.00
2:53 pm 14:53 Sunny 104 40 42 5.6 12 12 S 10 17 29.80 1009 10 16 0.00 0.00
3:53 pm 15:53 Sunny 107 41.7 44 6.7 12 12 S 8 13 29.78 1009 10 16 0.00 0.00
4:53 pm 16:53 Sunny 107 41.7 41 5 11 11 SSE 12 19 29.77 1008 10 16 0.00 0.00
5:53 pm 17:53 Sunny 104 40 45 7.2 13 13 SSE 18 30 29.77 1008 10 16 0.00 0.00
6:53 pm 18:53 Sunny 100 37.8 47 8.3 16 16 S 17 28 29.78 1009 10 16 0.00 0.00
7:53 pm 19:53 Sunny 95 35 49 9.4 21 21 S 14 22 29.82 1010 10 16 0.00 0.00
8:53 pm 20:53 Clear 89 31.7 53 11.7 29 29 S 3 6 29.85 1011 10 16 0.00 0.00
9:53 pm 21:53 Clear 88 31.1 55 12.8 33 33 Calm 29.88 1012 10 16 0.00 0.00
10:53 pm 22:53 Clear 86 30 56 13.3 36 36 W 5 7 29.90 1012 10 16 0.00 0.00
11:53 pm 23:53 Clear 80 26.7 56 13.3 44 44 Calm 29.90 1013 10 16 0.00 0.00

Powered by AerisWeather